Wetbulb
59.79 59.30 58.12 58.09 59.04 59.30 59.18 58.74 58.89 59.38 58.36 57.92 59.02 59.56 60.36 60.79 61.86 62.12 61.31 60.10 59.11 59.02 58.51 56.59 54.26 53.19 53.64 54.15 53.96 53.25 52.51 53.93 50.38 49.81 51.69 51.18 50.46 51.28 49.14 48.82 49.48 50.30 51.11
58.73 57.42 56.76 57.17 57.86 57.05 56.68 57.06 57.28 56.39 56.72 55.98 57.22 58.12 58.78 59.02 61.10 61.31 59.15 58.37 56.93 55.62 55.54 55.49 53.74 53.93 53.77 53.53 52.85 51.87 51.45 51.52 50.63 48.34 46.35 46.14 46.38 46.11 46.27 44.50 44.42 45.39 46.04
57.43 56.77 56.92 56.73 56.22 55.92 56.08 55.95 56.00 55.81 55.19 55.43 55.86 56.00 57.30 58.63 59.27 59.99 58.62 55.71 54.59 53.62 53.12 52.63 52.42 52.82 51.80 51.69 51.65 51.25 51.12 50.68 49.38 47.37 44.05 44.76 43.98 44.44 42.59 43.03 43.21 43.10 44.10
57.23 56.41 55.24 54.85 55.03 55.39 55.32 55.00 53.50 54.57 53.69 54.51 55.17 55.97 56.01 55.45 55.53 55.16 54.22 53.45 53.31 53.22 53.18 52.94 52.51 51.97 51.18 50.76 50.62 49.88 49.43 48.67 48.20 45.89 44.20 43.02 43.21 42.80 43.09 41.30 40.12 40.75 40.79
55.83 54.56 53.73 54.06 53.91 54.02 53.61 53.17 52.78 53.57 54.14 53.62 53.37 53.40 53.85 53.73 53.75 53.49 53.41 52.80 52.03 51.38 51.56 51.53 51.90 53.14 53.66 52.04 49.53 48.37 48.00 46.69 45.69 44.21 42.35 41.13 39.85 39.28 39.86 40.90 40.47 41.45 42.77
54.98 52.66 52.15 52.99 52.78 52.16 52.12 51.49 52.26 52.63 53.70 53.43 53.20 53.28 53.24 53.76 54.52 53.73 52.35 51.33 51.24 51.06 50.69 51.34 52.60 53.28 53.26 53.13 51.90 50.46 48.65 45.54 42.71 42.17 42.66 44.05 43.15 43.72 44.30 44.16 43.96 43.00 41.42
54.45 53.16 51.50 53.01 52.59 51.88 51.21 50.82 50.98 51.29 52.29 52.30 52.50 52.73 52.67 53.40 54.64 53.87 51.89 49.68 48.83 48.13 47.77 47.85 48.28 49.09 48.64 48.09 49.34 48.69 47.59 47.43 48.05 47.29 43.84 42.94 41.50 41.43 42.25 42.45 42.45 41.63 40.94
53.72 52.40 51.63 53.12 52.10 50.94 49.71 48.88 48.66 49.19 50.03 50.58 51.00 51.28 51.61 52.24 52.86 51.81 50.08 46.96 46.11 46.04 46.25 46.15 46.09 47.00 47.85 46.52 45.26 43.94 43.37 43.78 44.18 43.65 42.37 41.33 40.51 41.21 41.31 40.30 40.39 40.62 41.24
52.30 51.60 51.28 51.38 50.78 49.53 47.97 47.57 48.28 48.81 49.29 49.36 49.28 49.32 49.82 50.01 51.25 50.40 48.15 46.92 46.93 47.82 48.94 48.13 46.61 45.14 46.55 47.17 44.66 43.09 42.42 42.63 45.57 45.25 44.07 43.35 42.72 41.88 41.63 41.60 38.41 38.24 37.36
51.86 51.18 50.85 50.37 49.92 48.94 47.78 47.18 47.33 48.60 48.93 49.67 47.96 48.12 49.49 48.46 50.83 50.26 49.55 48.71 47.52 46.83 46.65 46.14 46.84 45.39 45.82 46.13 44.88 44.16 42.16 41.93 42.48 42.02 42.04 42.60 42.97 41.02 41.15 40.28 39.04 35.89 34.93
52.18 51.24 50.36 50.19 48.94 48.67 48.37 48.07 48.02 48.98 49.92 49.46 48.99 49.10 48.87 48.86 49.12 51.41 51.73 48.82 46.96 45.41 44.46 43.80 43.80 44.74 44.71 45.17 46.11 44.49 42.91 43.31 42.06 41.96 41.50 41.28 41.34 41.04 40.64 40.35 39.56 38.03 35.59
50.57 49.86 48.94 49.69 49.65 49.91 49.05 48.46 49.17 49.69 49.97 49.22 48.32 47.82 48.05 47.51 48.39 48.68 49.43 48.91 48.27 44.84 43.73 44.42 44.35 45.10 45.27 45.05 44.31 44.25 43.47 42.92 42.17 40.97 40.22 39.26 38.82 38.71 39.14 39.09 38.67 39.71 39.96
49.19 48.44 47.99 49.70 51.94 51.87 50.62 50.01 49.87 49.99 48.97 47.62 46.72 45.81 45.34 45.90 46.17 46.95 47.13 46.86 46.90 44.75 44.94 44.84 44.38 43.83 43.30 42.88 42.88 41.87 41.75 41.50 40.39 39.06 38.10 37.92 37.88 38.11 38.15 38.19 39.45 40.08 39.68
48.54 47.33 47.40 49.76 50.96 51.18 51.28 50.73 49.72 48.89 47.34 45.91 44.74 44.00 44.25 44.27 44.51 44.96 44.78 44.16 44.32 43.62 43.44 42.86 42.66 41.70 41.48 41.02 40.82 40.76 39.95 39.30 38.75 37.89 37.51 37.68 37.88 36.81 36.00 37.38 36.55 36.55 36.31
48.11 46.61 47.36 49.46 50.54 50.16 50.21 49.61 49.13 48.78 47.64 45.34 45.06 44.95 43.67 42.63 44.01 45.73 45.06 42.92 43.41 42.81 41.82 41.25 40.20 39.45 38.55 38.48 38.49 38.95 39.55 39.07 37.74 37.66 36.62 34.79 34.42 34.33 35.27 36.89 35.79 35.32 33.82
46.79 46.39 47.74 49.15 50.05 49.82 47.33 44.16 45.11 45.96 46.56 46.62 46.52 46.17 45.74 46.85 47.12 46.34 44.44 43.31 42.84 42.85 42.11 40.53 39.44 39.07 37.98 37.89 37.35 37.25 37.98 37.58 37.20 36.31 34.90 33.77 33.52 33.50 33.36 35.28 34.42 33.19 32.19
47.24 47.04 47.63 49.52 49.52 48.25 46.30 44.19 40.49 42.33 45.25 45.73 46.52 47.02 46.09 45.68 45.71 44.31 43.14 42.03 41.68 41.19 41.07 40.80 39.71 38.87 38.20 37.89 37.40 37.04 36.27 36.71 36.45 35.93 34.29 33.43 33.08 32.43 32.00 32.01 32.30 32.45 32.00
48.70 47.58 48.50 49.81 49.58 48.21 47.04 44.99 42.93 41.31 40.37 41.23 44.99 45.66 45.70 45.05 44.56 43.79 42.82 41.89 39.58 41.44 41.30 41.13 39.90 39.22 38.58 37.82 37.46 37.10 36.99 36.57 35.57 34.79 33.64 32.80 32.18 31.54 30.64 30.33 30.84 30.71 30.92
48.05 47.42 49.30 50.11 49.39 48.61 47.65 45.12 43.59 42.53 41.99 42.12 43.60 45.04 45.56 44.74 44.37 43.85 43.38 43.05 41.81 40.82 40.76 41.06 40.82 39.61 39.04 38.63 37.93 37.99 37.46 36.32 35.89 34.51 33.70 33.14 32.34 31.72 30.54 30.22 29.81 30.79 30.82
48.36 47.79 49.32 49.03 47.90 47.54 45.68 43.84 42.69 42.18 41.92 42.02 42.36 43.36 44.45 43.58 41.78 41.66 42.32 44.27 43.90 42.95 41.26 41.17 41.02 40.04 39.57 39.29 38.58 37.91 37.07 36.16 35.54 33.74 32.65 31.90 31.35 31.79 30.04 29.27 29.59 29.34 29.35
48.32 47.83 49.13 48.30 46.95 46.60 44.72 43.84 43.61 42.75 41.93 41.81 42.26 44.58 44.90 42.90 41.91 42.20 42.43 42.81 43.82 43.68 41.64 41.61 41.48 40.50 39.89 39.28 38.44 37.61 36.55 35.52 33.79 32.92 32.06 31.50 32.01 31.52 30.73 30.10 29.85 30.24 30.00
48.71 48.37 48.80 47.91 47.11 45.96 44.82 44.67 44.20 43.60 42.91 42.23 42.63 44.15 44.36 43.84 43.44 43.31 43.20 42.91 44.10 44.45 43.32 42.69 41.73 40.78 40.15 39.25 38.35 37.24 36.24 34.89 33.33 32.72 32.23 32.79 32.66 31.61 31.37 31.03 30.78 30.21 29.39
49.58 48.64 48.72 48.17 47.07 46.19 45.03 44.59 44.07 43.85 43.65 43.81 43.74 43.35 43.27 43.88 44.13 44.19 43.97 44.15 44.11 43.52 43.09 42.99 41.68 40.07 39.74 38.97 38.70 38.40 36.74 35.43 34.60 34.10 33.06 32.88 31.86 31.19 31.66 30.67 29.91 28.53 28.57
50.59 49.67 49.27 48.26 46.90 45.96 45.12 44.10 44.05 42.88 43.93 43.94 43.42 43.53 43.42 44.08 44.36 44.48 44.70 44.58 43.76 43.14 42.88 42.21 40.88 39.42 38.21 37.87 37.75 38.11 37.82 36.90 36.34 35.14 34.11 33.00 32.39 32.00 31.25 30.39 29.20 29.44 29.33
51.02 50.45 49.87 48.11 46.71 45.80 45.37 44.59 43.95 43.66 43.40 43.51 43.12 43.40 43.70 44.12 44.18 44.51 44.89 44.64 43.45 42.04 41.27 41.17 40.25 38.81 37.63 36.97 36.85 36.96 34.90 34.35 35.03 32.35 34.50 33.46 32.60 31.99 31.17 30.04 29.64 29.48 29.22
50.63 50.54 49.86 48.30 46.93 46.57 45.60 44.60 43.76 43.57 42.97 42.98 43.09 43.82 44.05 43.91 44.00 44.33 44.45 43.88 42.15 40.88 40.29 40.17 39.23 37.88 36.86 36.52 36.68 35.03 34.19 32.86 32.63 32.68 33.27 34.01 32.55 31.90 30.85 29.94 29.93 29.62 29.47
MSLP
1010.53 1010.96 1011.63 1011.89 1011.91 1011.94 1012.10 1012.60 1012.70 1012.77 1012.96 1013.02 1013.00 1013.06 1013.19 1013.39 1013.68 1013.91 1014.35 1014.85 1015.33 1015.71 1016.24 1016.76 1017.38 1018.01 1018.57 1018.89 1019.44 1019.84 1019.95 1019.80 1020.14 1020.95 1020.93 1021.53 1021.90 1022.14 1022.95 1023.18 1023.46 1023.47 1023.72
1010.90 1011.44 1011.98 1012.33 1012.46 1012.52 1012.71 1012.94 1013.00 1013.09 1013.19 1013.26 1013.23 1013.26 1013.30 1013.46 1013.54 1013.83 1014.41 1014.74 1015.35 1015.86 1016.13 1016.60 1017.33 1017.67 1018.41 1018.81 1019.45 1020.03 1020.46 1020.69 1020.71 1021.09 1021.84 1022.53 1022.81 1023.57 1023.66 1023.83 1024.06 1024.06 1024.27
1011.17 1011.62 1012.06 1012.43 1012.76 1012.96 1013.13 1013.38 1013.37 1013.31 1013.42 1013.40 1013.40 1013.38 1013.43 1013.50 1013.71 1014.02 1014.46 1015.08 1015.61 1016.10 1016.52 1017.04 1017.38 1017.79 1018.46 1019.25 1019.34 1020.37 1020.88 1020.80 1020.99 1021.45 1022.42 1023.02 1023.47 1023.98 1024.30 1024.47 1024.57 1024.54 1024.34
1011.18 1011.58 1012.31 1012.79 1013.12 1013.24 1013.50 1013.72 1013.77 1013.71 1013.80 1013.66 1013.51 1013.38 1013.53 1013.82 1014.20 1014.62 1015.07 1015.58 1016.12 1016.59 1017.02 1017.55 1017.92 1018.38 1018.93 1019.16 1019.82 1020.46 1020.87 1021.14 1021.35 1021.79 1022.57 1023.17 1023.65 1024.11 1024.28 1024.48 1024.60 1024.57 1024.35
1011.29 1011.99 1012.51 1012.98 1013.38 1013.56 1013.96 1014.14 1014.20 1014.18 1014.19 1014.01 1013.89 1014.00 1014.15 1014.48 1014.73 1015.11 1015.63 1016.18 1016.61 1017.24 1017.75 1018.13 1018.59 1018.94 1019.28 1019.70 1020.28 1020.74 1021.22 1021.46 1021.83 1022.37 1022.92 1023.36 1023.68 1023.97 1024.00 1024.16 1024.16 1024.00 1023.90
1011.54 1012.22 1012.74 1013.16 1013.63 1013.95 1014.34 1014.58 1014.56 1014.55 1014.61 1014.46 1014.53 1014.72 1014.83 1015.18 1015.48 1015.84 1016.30 1016.84 1017.40 1017.86 1018.40 1018.90 1019.19 1019.47 1019.82 1020.29 1020.73 1021.16 1021.47 1021.78 1022.06 1022.46 1022.80 1022.93 1023.26 1023.44 1023.50 1023.52 1023.62 1023.54 1023.45
1011.72 1012.37 1012.84 1013.32 1013.76 1014.11 1014.65 1015.01 1015.00 1015.00 1015.08 1015.19 1015.29 1015.39 1015.61 1015.95 1016.21 1016.63 1017.12 1017.73 1018.20 1018.93 1019.37 1019.77 1020.15 1020.60 1020.83 1021.10 1021.38 1021.71 1021.94 1022.01 1021.90 1021.86 1022.56 1023.04 1023.41 1023.71 1023.74 1023.62 1023.64 1023.73 1023.74
1011.80 1012.50 1012.95 1013.40 1014.01 1014.44 1015.04 1015.45 1015.59 1015.66 1015.86 1016.01 1016.24 1016.43 1016.58 1017.02 1017.22 1017.59 1018.03 1018.59 1019.21 1019.80 1020.19 1020.59 1020.88 1021.05 1021.22 1021.43 1021.73 1022.08 1022.58 1022.80 1022.72 1022.88 1023.45 1023.88 1024.15 1024.14 1024.19 1024.35 1024.22 1024.22 1024.30
1012.05 1012.66 1013.13 1013.78 1014.39 1014.83 1015.46 1015.96 1016.10 1016.12 1016.43 1016.80 1017.14 1017.36 1017.59 1018.03 1018.20 1018.49 1018.80 1019.36 1019.82 1020.20 1020.50 1020.80 1021.22 1021.82 1022.00 1021.87 1022.13 1022.57 1023.11 1023.74 1024.09 1024.19 1024.36 1024.64 1024.86 1024.89 1024.79 1024.22 1024.46 1024.41 1024.28
1012.11 1012.86 1013.43 1014.03 1014.75 1015.13 1015.76 1016.32 1016.55 1016.51 1016.76 1017.24 1017.87 1018.23 1018.49 1018.81 1019.16 1019.32 1019.45 1019.70 1020.11 1020.77 1021.47 1021.99 1022.24 1022.47 1022.47 1022.26 1022.45 1022.86 1023.29 1023.69 1024.01 1024.38 1024.66 1024.76 1024.69 1024.99 1024.95 1024.89 1024.96 1025.00 1025.21
1012.22 1013.08 1013.70 1014.32 1015.06 1015.46 1015.97 1016.53 1016.75 1016.78 1016.96 1017.45 1017.95 1018.53 1019.03 1019.40 1019.69 1019.71 1019.78 1020.05 1020.43 1020.98 1021.64 1022.40 1023.04 1023.24 1023.35 1023.30 1023.05 1023.35 1023.79 1024.15 1024.42 1024.45 1024.57 1024.61 1024.49 1024.65 1024.91 1025.21 1025.51 1025.71 1025.64
1012.48 1013.33 1013.86 1014.43 1015.13 1015.56 1016.00 1016.64 1016.86 1016.94 1017.25 1017.81 1018.40 1019.07 1019.77 1020.24 1020.46 1020.49 1020.42 1020.63 1021.00 1021.51 1022.36 1023.20 1023.82 1023.91 1023.84 1023.93 1024.23 1024.52 1024.66 1024.53 1024.60 1024.63 1024.66 1024.84 1024.97 1025.12 1025.26 1025.56 1025.79 1025.78 1025.70
1012.67 1013.48 1013.92 1014.32 1014.65 1015.28 1015.82 1016.35 1016.78 1017.10 1017.54 1018.06 1018.68 1019.38 1020.15 1020.83 1021.26 1021.44 1021.54 1021.70 1021.92 1022.45 1023.18 1023.81 1024.36 1024.56 1024.77 1024.87 1024.98 1025.02 1024.79 1024.86 1024.92 1024.92 1025.14 1025.41 1025.82 1026.13 1026.13 1026.03 1025.97 1025.85 1025.73
1012.67 1013.60 1014.07 1014.15 1014.78 1015.42 1015.91 1016.37 1016.84 1017.31 1017.83 1018.28 1018.80 1019.53 1020.31 1021.04 1021.63 1022.08 1022.42 1022.86 1023.22 1023.73 1024.19 1024.37 1024.77 1025.04 1025.13 1025.30 1025.26 1025.35 1025.54 1025.70 1025.60 1025.72 1025.84 1026.14 1026.35 1026.57 1026.57 1026.53 1026.38 1026.19 1025.88
1012.71 1013.65 1014.14 1014.25 1014.86 1015.58 1016.00 1016.56 1016.94 1017.50 1018.09 1018.54 1019.04 1019.59 1020.20 1020.90 1021.61 1022.08 1022.49 1023.00 1023.43 1024.01 1024.50 1024.83 1025.02 1025.18 1025.40 1025.58 1025.81 1025.92 1026.04 1026.09 1026.22 1026.39 1026.58 1027.00 1027.10 1027.09 1026.82 1026.81 1026.71 1026.47 1026.30
1012.71 1013.63 1014.01 1014.24 1015.04 1015.73 1016.44 1017.32 1017.82 1018.31 1018.62 1019.05 1019.52 1019.88 1020.42 1021.06 1021.90 1022.54 1023.07 1023.65 1024.13 1024.29 1024.45 1024.76 1025.08 1025.30 1025.56 1025.81 1025.97 1026.21 1026.39 1026.56 1026.80 1026.99 1027.25 1027.49 1027.42 1027.25 1027.25 1027.14 1027.08 1027.01 1026.73
1012.30 1013.41 1013.99 1014.06 1015.05 1015.88 1016.73 1017.41 1018.37 1019.39 1019.57 1019.92 1020.24 1020.56 1021.18 1021.71 1022.53 1023.22 1023.88 1024.36 1024.55 1024.60 1024.62 1025.04 1025.38 1025.66 1025.93 1026.10 1026.24 1026.42 1026.71 1027.11 1027.42 1027.39 1027.68 1027.76 1027.92 1027.88 1027.82 1027.65 1027.53 1027.31 1027.01
1012.27 1013.06 1013.69 1013.89 1014.91 1015.93 1016.67 1017.32 1018.21 1018.97 1019.75 1020.67 1021.16 1021.42 1021.92 1022.47 1023.09 1023.73 1024.24 1024.50 1024.89 1024.85 1025.01 1025.31 1025.65 1025.92 1026.15 1026.35 1026.58 1026.83 1027.09 1027.42 1027.73 1027.97 1028.21 1028.42 1028.51 1028.48 1028.40 1028.21 1028.05 1027.86 1027.55
1012.11 1012.93 1013.45 1013.79 1014.86 1015.80 1016.50 1017.17 1017.98 1018.68 1019.48 1020.39 1021.24 1021.95 1022.46 1022.96 1023.46 1023.97 1024.26 1024.20 1024.55 1024.92 1025.19 1025.54 1025.87 1026.18 1026.47 1026.75 1027.07 1027.29 1027.43 1027.62 1027.89 1028.23 1028.52 1028.60 1028.67 1028.67 1028.47 1028.42 1028.32 1028.10 1027.84
1011.86 1012.46 1013.21 1013.68 1014.80 1015.74 1016.49 1017.04 1017.77 1018.46 1019.24 1020.09 1020.86 1021.56 1022.33 1023.06 1023.47 1023.94 1024.22 1024.09 1024.43 1024.86 1025.22 1025.70 1026.08 1026.39 1026.72 1027.09 1027.35 1027.56 1027.71 1027.86 1028.09 1028.57 1028.84 1028.95 1028.99 1028.87 1028.75 1028.71 1028.61 1028.38 1028.10
1011.52 1012.38 1012.98 1013.61 1014.50 1015.49 1016.32 1016.84 1017.47 1018.12 1018.84 1019.69 1020.40 1021.14 1021.89 1022.42 1022.84 1023.41 1023.85 1023.98 1024.37 1024.76 1025.18 1025.75 1026.16 1026.53 1026.91 1027.22 1027.43 1027.61 1027.75 1028.10 1028.66 1028.94 1029.06 1029.12 1028.94 1028.77 1028.85 1028.75 1028.49 1028.24 1028.08
1010.92 1011.86 1012.79 1013.28 1014.17 1015.30 1016.11 1016.65 1017.22 1017.84 1018.47 1019.26 1020.04 1020.99 1021.83 1022.04 1022.42 1022.99 1023.43 1023.79 1024.23 1024.66 1025.12 1025.69 1026.19 1026.63 1027.03 1027.28 1027.40 1027.58 1027.83 1028.23 1028.79 1029.07 1029.13 1028.98 1028.87 1028.86 1028.66 1028.44 1028.26 1028.21 1028.19
1010.26 1011.30 1012.34 1013.06 1013.81 1015.02 1015.88 1016.43 1016.93 1017.58 1018.15 1018.89 1019.67 1020.64 1021.49 1021.60 1022.02 1022.56 1023.14 1023.64 1024.15 1024.73 1025.18 1025.72 1026.22 1026.72 1027.07 1027.32 1027.47 1027.71 1027.91 1028.30 1028.75 1029.03 1029.06 1028.97 1028.90 1028.90 1028.70 1028.55 1028.51 1028.53 1028.31
1009.57 1010.63 1011.62 1012.53 1013.44 1014.52 1015.38 1016.01 1016.64 1017.32 1017.89 1018.51 1019.34 1020.25 1020.99 1021.25 1021.72 1022.33 1023.00 1023.46 1024.18 1024.77 1025.29 1025.83 1026.30 1026.76 1027.18 1027.50 1027.68 1027.95 1028.15 1028.42 1028.69 1028.91 1028.95 1028.90 1028.92 1028.96 1028.87 1028.73 1028.76 1028.59 1028.36
1008.99 1009.98 1010.88 1011.90 1012.85 1013.86 1014.90 1015.59 1016.29 1017.04 1017.63 1018.14 1018.93 1019.75 1020.51 1021.01 1021.53 1022.21 1022.82 1023.42 1024.19 1024.79 1025.40 1025.97 1026.34 1026.70 1027.16 1027.54 1027.89 1028.14 1028.63 1028.84 1028.90 1029.29 1029.08 1029.10 1029.03 1028.92 1028.91 1028.96 1028.84 1028.59 1028.36
1008.57 1009.46 1010.39 1011.45 1012.31 1013.22 1014.27 1015.00 1015.78 1016.57 1017.19 1017.74 1018.47 1019.19 1019.90 1020.60 1021.24 1021.97 1022.64 1023.30 1024.16 1024.83 1025.42 1025.99 1026.34 1026.76 1027.17 1027.60 1027.94 1028.57 1028.97 1029.22 1029.29 1029.40 1029.29 1029.05 1029.06 1029.01 1029.08 1028.86 1028.63 1028.35 1028.08
Wind_Speed
8 7 5 3 3 4 4 3 3 2 3 4 5 4 5 6 7 7 6 7 7 7 7 10 10 10 6 6 4 2 2 4 3 2 4 4 3 4 4 6 4 5 4
6 7 5 3 3 4 3 4 5 4 1 2 3 4 4 5 5 7 5 6 7 7 7 8 8 8 9 7 5 4 2 1 2 3 2 2 4 5 4 4 3 4 2
7 8 6 5 4 4 3 3 4 4 4 3 3 4 4 4 1 3 6 7 7 7 7 7 8 10 10 5 6 4 3 2 3 3 3 1 2 1 3 3 1 1 1
7 6 6 5 4 4 4 4 5 4 3 3 3 3 5 6 7 8 9 9 9 8 8 8 7 6 7 8 6 5 3 4 3 3 3 2 2 1 1 1 1 2 2
8 8 6 6 5 6 6 5 6 5 5 6 7 8 8 7 6 9 10 10 9 9 9 9 8 11 13 9 5 5 4 3 3 3 2 1 1 1 2 2 3 5 5
9 9 8 6 7 7 7 6 6 5 7 7 9 8 9 6 17 18 12 10 11 11 10 9 9 14 14 15 13 10 6 4 3 2 3 3 3 3 1 2 3 2 2
9 9 9 7 8 9 8 7 7 7 8 9 9 10 10 10 21 22 21 11 12 11 11 10 9 8 11 10 15 16 14 13 13 5 7 6 7 6 4 1 1 2 3
10 10 9 8 9 9 9 8 8 8 8 8 9 10 10 11 22 24 23 12 11 10 10 10 9 9 8 8 9 10 10 11 9 8 9 8 8 6 5 4 4 4 2
10 10 10 10 10 10 9 8 7 9 9 10 10 11 11 11 22 23 17 12 11 10 9 10 11 10 10 10 9 9 10 10 13 17 14 12 11 10 9 3 4 3 2
12 11 11 11 10 10 10 9 7 8 9 10 11 11 16 11 17 18 13 8 11 10 11 12 15 11 11 8 6 6 7 7 7 7 6 6 6 5 6 5 4 4 4
12 12 11 10 10 11 11 9 7 9 10 11 11 11 12 11 10 10 11 9 8 8 8 8 8 12 11 11 11 7 7 7 5 3 3 3 3 4 4 5 6 4 3
12 12 11 12 10 10 12 8 8 9 11 12 12 11 9 11 11 14 16 13 11 9 9 8 9 14 14 13 10 11 9 4 3 2 2 4 4 5 5 5 4 3 2
13 13 11 10 12 12 11 10 8 10 9 9 8 8 8 8 9 16 16 16 15 10 9 13 16 14 14 11 11 7 3 3 2 3 4 4 6 5 6 5 6 5 5
14 13 10 10 12 11 9 8 8 7 7 7 8 8 8 8 7 7 8 10 17 12 13 8 10 11 10 7 6 6 6 5 5 4 4 4 4 4 4 3 3 5 4
14 12 9 9 12 11 9 7 7 8 6 7 7 7 8 8 7 9 8 7 6 10 9 5 4 4 4 4 4 4 3 4 4 4 6 6 5 5 4 3 3 4 4
13 11 9 9 9 8 8 8 19 12 14 11 9 7 6 15 16 14 17 17 14 10 4 4 4 4 4 3 3 4 3 4 4 5 3 3 3 4 4 4 5 5 5
14 12 9 10 9 9 8 8 9 8 13 12 12 14 13 16 16 16 17 14 8 1 4 4 4 3 3 3 3 3 4 5 3 3 4 4 5 5 6 5 5 4 5
14 19 10 10 9 9 9 9 9 9 9 7 7 12 17 18 18 17 15 10 4 3 4 4 3 3 3 3 3 3 3 3 4 4 4 4 3 4 3 4 4 4 5
13 11 9 10 9 9 8 9 9 9 9 8 8 10 13 17 17 16 13 4 4 4 4 3 3 3 3 3 3 3 2 4 3 3 3 3 3 3 4 5 5 9 8
13 19 10 11 10 9 8 9 9 9 9 9 8 9 9 11 9 8 6 4 4 4 4 3 3 3 3 3 3 2 3 2 3 3 3 3 3 4 5 5 4 5 5
11 12 16 11 11 9 9 9 9 9 9 9 8 10 15 8 8 7 6 4 4 4 4 4 3 3 3 3 3 2 2 4 3 1 2 2 2 3 3 4 4 3 5
12 12 11 12 11 10 9 9 9 9 10 9 9 10 18 7 7 7 6 6 5 4 4 4 4 3 3 3 3 3 3 4 3 1 1 3 3 2 3 3 4 5 5
13 14 12 11 12 13 10 9 10 9 10 10 9 10 11 7 7 7 7 6 6 5 5 4 4 4 3 3 3 3 2 4 3 3 2 2 2 3 4 4 5 6 5
14 15 14 12 12 11 11 11 10 10 10 10 10 10 10 7 8 8 7 7 6 6 5 4 5 5 4 4 4 3 3 4 3 2 1 2 3 4 4 3 6 7 6
14 14 14 13 13 12 12 11 11 11 10 10 10 10 10 8 8 8 8 7 7 7 6 5 5 6 7 7 6 7 8 7 5 4 1 2 3 4 4 4 6 6 7
14 15 13 12 13 12 12 11 11 11 11 10 10 10 10 9 9 9 8 9 7 7 8 5 6 8 8 7 8 12 9 7 3 3 4 1 3 3 3 4 6 5 6
Wind_Direction
148 102 95 40 96 71 51 11 349 337 256 260 259 262 209 207 210 213 171 173 185 178 178 169 157 146 147 133 120 102 27 18 62 48 90 105 111 124 62 56 48 70 84
126 114 115 127 133 95 70 18 2 13 96 254 257 269 236 228 244 183 146 154 158 160 159 164 170 157 147 139 134 124 97 172 177 139 70 80 67 30 49 74 44 53 32
141 139 156 143 121 95 79 36 9 8 347 321 240 210 232 230 91 103 124 127 123 127 131 135 142 149 139 131 107 134 155 90 82 100 111 92 84 82 70 63 58 27 276
156 130 123 116 122 103 93 64 35 34 358 48 51 104 106 91 100 104 106 107 106 111 112 117 111 102 129 128 106 93 65 71 63 80 77 84 87 84 78 152 214 228 232
139 133 127 124 108 107 89 61 58 40 61 60 65 63 79 88 98 106 105 108 106 91 84 80 85 105 98 96 106 88 92 72 68 70 84 98 123 148 199 190 218 196 206
142 136 124 131 121 106 95 76 70 60 74 71 73 75 81 89 103 100 96 92 89 87 84 77 77 81 89 94 98 101 103 109 118 136 169 146 96 79 160 227 259 217 234
149 141 134 150 126 110 98 86 70 61 75 69 74 80 83 92 101 98 92 88 90 87 87 86 85 91 99 101 97 92 80 65 47 54 67 42 63 33 337 307 241 342 340
149 141 133 135 123 110 100 85 76 69 67 69 71 75 85 92 100 99 93 89 87 90 97 105 114 110 96 103 99 85 71 54 50 71 69 62 50 25 34 11 6 348 289
151 143 135 129 126 116 101 92 89 92 89 79 72 76 85 95 105 105 104 105 112 116 96 86 85 91 94 100 99 97 90 86 79 82 86 88 78 53 16 347 18 333 14
153 145 135 128 127 115 108 100 97 98 102 97 93 88 92 97 103 110 109 109 102 98 91 75 72 82 65 42 101 116 110 115 119 124 134 138 144 106 49 32 16 16 19
144 143 132 127 126 119 115 114 115 113 112 109 110 102 98 97 75 68 98 109 106 103 92 84 77 79 78 60 55 71 86 96 92 100 95 55 45 47 58 50 31 12 355
141 142 134 134 138 130 123 129 130 124 116 113 110 105 98 94 85 74 76 86 97 97 95 95 95 89 83 87 87 86 75 63 38 53 42 41 22 22 30 40 358 336 322
142 140 138 145 148 140 137 139 134 129 125 123 119 115 109 104 96 98 95 93 93 89 86 100 103 100 95 81 83 84 70 54 48 47 40 46 35 19 357 353 1 357 334
143 143 149 149 143 147 145 143 143 140 135 131 129 127 126 124 124 120 103 96 96 99 109 101 92 87 93 110 93 60 49 38 30 35 35 46 39 5 7 6 350 355 326
144 144 156 138 148 149 143 138 144 135 138 139 136 136 138 137 135 130 131 126 118 113 124 134 119 106 98 89 77 75 61 51 49 37 37 32 12 351 349 15 344 335 343
146 150 156 151 147 151 131 94 59 74 79 88 115 132 122 111 116 104 98 102 119 140 122 111 105 98 93 93 98 95 80 62 43 50 46 22 346 357 358 359 12 351 332
152 154 164 146 153 148 150 141 124 77 74 80 83 97 117 125 122 119 123 126 119 194 99 88 92 99 102 98 74 71 75 64 41 47 39 22 16 9 359 352 355 339 326
158 156 168 148 149 156 158 144 138 138 135 127 118 121 127 131 134 134 137 127 123 111 100 93 100 107 103 92 84 85 93 113 71 45 34 28 21 1 352 345 348 337 333
157 159 168 145 146 158 153 145 145 143 138 135 133 128 136 137 138 146 170 137 127 126 113 104 109 107 99 91 78 64 68 67 61 58 33 24 9 351 351 347 343 345 345
163 161 167 146 145 158 154 153 151 149 147 149 154 149 147 145 154 166 190 152 137 139 130 131 123 126 104 103 110 113 129 156 83 55 25 8 2 348 350 345 344 334 329
158 164 161 149 150 159 162 161 157 155 153 156 158 158 158 163 165 168 180 167 147 149 139 143 131 119 119 123 129 143 117 75 66 56 28 352 326 340 6 331 303 287 314
160 163 166 155 150 158 168 163 160 160 155 157 155 150 160 185 167 168 172 162 150 148 143 141 139 130 134 151 154 138 113 125 116 93 59 283 348 350 302 319 344 358 349
161 163 165 158 151 159 166 167 164 164 159 158 153 154 172 191 164 168 162 157 147 148 143 142 133 130 133 130 117 108 124 113 139 154 246 348 335 357 335 350 3 347 331
164 165 163 159 155 164 170 168 166 165 162 158 156 162 175 184 165 163 160 153 150 148 137 132 137 143 141 131 127 124 103 113 125 123 27 353 355 356 344 359 351 342 337
167 169 164 163 162 166 169 169 167 168 167 161 161 165 173 173 165 159 162 152 152 144 141 140 139 147 149 146 143 128 103 62 76 16 25 2 349 343 353 16 340 345 341
170 170 164 165 164 167 171 170 168 169 170 164 165 167 170 169 165 162 160 154 152 143 141 143 152 145 151 151 142 125 128 127 115 44 335 356 353 359 1 316 315 336 331